TUA739 UTAA-UWKD

Flight info

Callsign TUA739
Flight time N/A
Altitude 34000
Route N0460F340 MAMED A87 TIROM L992 BODSI M158 URL M161 MOF T793 TONSI
Aircraft B738/M-VGDW/C

Departure

Time N/A
Airport Ashgabat International Airport (UTAA)

Arrival

Time 2026-05-06 16:39
Airport Kazan International Airport (UWKD)
Time Latitude Longitude Altitude Speed Heading
2026-05-06 15:24 47.65149 51.77142 35823 ft 477 kts 356°
2026-05-06 15:25 47.71787 51.76741 35826 ft 476 kts 356°
2026-05-06 15:25 47.78378 51.76344 36084 ft 474 kts 356°
2026-05-06 15:25 47.81686 51.76144 35907 ft 476 kts 356°
2026-05-06 15:26 47.84956 51.75947 35823 ft 471 kts 356°
2026-05-06 15:26 47.91481 51.75549 35824 ft 472 kts 356°
2026-05-06 15:27 47.98061 51.75139 35824 ft 472 kts 356°
2026-05-06 15:27 48.04578 51.74732 35819 ft 470 kts 356°
2026-05-06 15:28 48.11076 51.74326 35815 ft 470 kts 356°
2026-05-06 15:28 48.17621 51.73916 35817 ft 470 kts 356°
2026-05-06 15:29 48.24127 51.73508 35814 ft 470 kts 356°
2026-05-06 15:29 48.30637 51.73097 35809 ft 470 kts 356°
2026-05-06 15:30 48.37175 51.72685 35801 ft 469 kts 356°
2026-05-06 15:30 48.40396 51.72483 35650 ft 466 kts 356°
2026-05-06 15:30 48.43658 51.72277 35789 ft 468 kts 356°
2026-05-06 15:31 48.50182 51.71862 35797 ft 473 kts 356°
2026-05-06 15:31 48.56703 51.71448 35797 ft 468 kts 356°
2026-05-06 15:32 48.66475 51.70826 35788 ft 469 kts 356°
2026-05-06 15:32 48.72992 51.70409 35787 ft 468 kts 356°
2026-05-06 15:33 48.78372 51.70063 35782 ft 467 kts 356°
2026-05-06 15:33 48.85955 51.69575 35788 ft 469 kts 356°
2026-05-06 15:34 48.92433 51.69158 35785 ft 468 kts 357°
2026-05-06 15:34 48.98924 51.68739 35789 ft 467 kts 357°
2026-05-06 15:35 49.05406 51.68320 35786 ft 467 kts 357°
2026-05-06 15:35 49.11885 51.67898 35786 ft 467 kts 357°
2026-05-06 15:36 49.18352 51.67475 35788 ft 467 kts 357°
2026-05-06 15:36 49.24834 51.67049 35785 ft 466 kts 357°
2026-05-06 15:37 49.31297 51.66625 35783 ft 467 kts 357°
2026-05-06 15:37 49.37737 51.66199 35784 ft 466 kts 357°
2026-05-06 15:38 49.44226 51.65770 35785 ft 465 kts 357°
2026-05-06 15:38 49.50687 51.65341 35833 ft 465 kts 358°
2026-05-06 15:39 49.55950 51.64991 35790 ft 455 kts 358°
2026-05-06 15:39 49.63373 51.64498 35783 ft 460 kts 358°
2026-05-06 15:40 49.69754 51.64072 35779 ft 458 kts 358°
2026-05-06 15:40 49.76069 51.63649 35781 ft 458 kts 358°
2026-05-06 15:41 49.81372 51.63294 35778 ft 457 kts 358°
2026-05-06 15:41 49.88744 51.62798 35777 ft 456 kts 358°
2026-05-06 15:42 49.95063 51.62371 35777 ft 456 kts 358°
2026-05-06 15:42 50.00327 51.62015 35774 ft 456 kts 358°
2026-05-06 15:43 50.07703 51.61515 35788 ft 457 kts 358°
2026-05-06 15:43 50.14020 51.61086 35779 ft 456 kts 358°
2026-05-06 15:44 50.20339 51.60655 35785 ft 456 kts 358°
2026-05-06 15:44 50.25623 51.60294 35794 ft 455 kts 358°
2026-05-06 15:45 50.31926 51.59862 35790 ft 454 kts 358°
2026-05-06 15:45 50.39269 51.59358 35793 ft 455 kts 358°
2026-05-06 15:46 50.44477 51.59000 35791 ft 455 kts 358°
2026-05-06 15:46 50.50796 51.58584 35797 ft 454 kts 359°
2026-05-06 15:47 50.58121 51.58112 35816 ft 453 kts 359°
2026-05-06 15:47 50.64392 51.57707 35804 ft 453 kts 359°
2026-05-06 15:48 50.70687 51.57300 35804 ft 454 kts 359°
2026-05-06 15:48 50.76981 51.56890 35809 ft 453 kts 359°
2026-05-06 15:49 50.82215 51.56546 35819 ft 453 kts 359°
2026-05-06 15:49 50.89505 51.56066 35820 ft 452 kts 359°
2026-05-06 15:50 50.94697 51.55724 35827 ft 452 kts 359°
2026-05-06 15:50 51.01989 51.55240 35827 ft 450 kts 359°
2026-05-06 15:51 51.08228 51.54824 35831 ft 451 kts 359°
2026-05-06 15:51 51.13448 51.53913 35828 ft 453 kts 348°
2026-05-06 15:52 51.17351 51.51647 35840 ft 455 kts 334°
2026-05-06 15:52 51.20114 51.49134 35839 ft 455 kts 330°
2026-05-06 15:52 51.24498 51.44591 35836 ft 455 kts 327°
2026-05-06 15:53 51.30591 51.37949 35835 ft 454 kts 327°
2026-05-06 15:53 51.35784 51.32296 35838 ft 453 kts 327°
2026-05-06 15:54 51.40133 51.27595 35841 ft 453 kts 327°
2026-05-06 15:54 51.46216 51.21052 35913 ft 452 kts 327°
2026-05-06 15:55 51.50593 51.16408 35682 ft 454 kts 328°
2026-05-06 15:55 51.54092 51.12716 35838 ft 456 kts 328°
2026-05-06 15:55 51.56739 51.09924 35835 ft 458 kts 327°
2026-05-06 15:56 51.62030 51.04328 35842 ft 454 kts 328°
2026-05-06 15:56 51.67439 50.99218 35847 ft 452 kts 336°
2026-05-06 15:57 51.72339 50.96254 35847 ft 451 kts 344°
2026-05-06 15:57 51.79355 50.93197 35849 ft 452 kts 347°
2026-05-06 15:58 51.85437 50.90729 35850 ft 452 kts 347°
2026-05-06 15:58 51.90536 50.88626 35860 ft 452 kts 347°
2026-05-06 15:59 51.96588 50.86076 35853 ft 451 kts 346°
2026-05-06 15:59 52.03618 50.83097 35869 ft 450 kts 346°
2026-05-06 16:00 52.08666 50.80947 35874 ft 450 kts 346°
2026-05-06 16:00 52.14668 50.78376 35875 ft 450 kts 346°
2026-05-06 16:01 52.20692 50.75784 35874 ft 450 kts 346°
2026-05-06 16:01 52.27771 50.72726 35872 ft 450 kts 346°
2026-05-06 16:02 52.32805 50.70546 35871 ft 450 kts 346°
2026-05-06 16:02 52.38815 50.67935 35869 ft 448 kts 346°
2026-05-06 16:03 52.44827 50.65315 35875 ft 449 kts 346°
2026-05-06 16:03 52.50811 50.62701 35878 ft 448 kts 346°
2026-05-06 16:04 52.56800 50.60075 35877 ft 447 kts 346°
2026-05-06 16:04 52.62809 50.57432 35873 ft 448 kts 346°
2026-05-06 16:05 52.68819 50.54779 35886 ft 448 kts 346°
2026-05-06 16:05 52.75806 50.51688 35869 ft 447 kts 346°
2026-05-06 16:06 52.80797 50.49473 35882 ft 448 kts 346°
2026-05-06 16:06 52.86771 50.46814 35886 ft 447 kts 346°
2026-05-06 16:07 52.92762 50.44139 35896 ft 447 kts 346°
2026-05-06 16:07 52.99760 50.41006 35897 ft 447 kts 346°
2026-05-06 16:08 53.04724 50.38777 35893 ft 446 kts 346°
2026-05-06 16:08 53.10674 50.36099 35901 ft 447 kts 346°
2026-05-06 16:09 53.16622 50.33414 35892 ft 446 kts 345°
2026-05-06 16:09 53.22582 50.30716 35887 ft 447 kts 345°
2026-05-06 16:10 53.28598 50.27983 35889 ft 446 kts 345°
2026-05-06 16:10 53.34546 50.25274 35894 ft 446 kts 345°
2026-05-06 16:11 53.40492 50.22558 35891 ft 445 kts 345°
2026-05-06 16:11 53.46440 50.19834 35885 ft 445 kts 345°
2026-05-06 16:12 53.52443 50.17091 35882 ft 445 kts 345°
2026-05-06 16:12 53.58419 50.14589 35883 ft 444 kts 346°
2026-05-06 16:13 53.64428 50.12186 35884 ft 445 kts 346°
2026-05-06 16:13 53.70396 50.09792 35885 ft 444 kts 346°
2026-05-06 16:14 53.76398 50.07357 35887 ft 444 kts 346°
2026-05-06 16:14 53.82395 50.04904 35892 ft 444 kts 346°
2026-05-06 16:15 53.88422 50.02424 35886 ft 445 kts 346°
2026-05-06 16:15 53.95411 49.99535 35881 ft 445 kts 346°
2026-05-06 16:16 54.00415 49.97459 35869 ft 445 kts 346°
2026-05-06 16:16 54.06403 49.94967 35871 ft 445 kts 346°
2026-05-06 16:17 54.12389 49.92462 35871 ft 444 kts 346°
2026-05-06 16:17 54.19396 49.89520 35869 ft 444 kts 346°
2026-05-06 16:18 54.24368 49.87426 35700 ft 440 kts 346°
2026-05-06 16:18 54.27305 49.86188 35311 ft 436 kts 346°
2026-05-06 16:18 54.30250 49.84944 34740 ft 437 kts 346°
2026-05-06 16:19 54.33189 49.83700 34004 ft 439 kts 346°
2026-05-06 16:19 54.36165 49.82510 33253 ft 441 kts 348°
2026-05-06 16:19 54.39150 49.81572 32499 ft 443 kts 351°
2026-05-06 16:19 54.42199 49.80785 31726 ft 444 kts 352°
2026-05-06 16:20 54.45258 49.80072 30925 ft 446 kts 352°
2026-05-06 16:20 54.48313 49.79384 30075 ft 447 kts 352°
2026-05-06 16:20 54.51407 49.78688 29160 ft 449 kts 352°
2026-05-06 16:20 54.54494 49.77985 28280 ft 450 kts 352°
2026-05-06 16:21 54.57574 49.77273 27672 ft 444 kts 352°
2026-05-06 16:21 54.60606 49.76562 27039 ft 439 kts 352°
2026-05-06 16:21 54.63626 49.75845 26387 ft 435 kts 352°
2026-05-06 16:21 54.66579 49.75137 25745 ft 432 kts 352°
2026-05-06 16:22 54.69539 49.74423 25090 ft 428 kts 352°
2026-05-06 16:22 54.72465 49.73684 24421 ft 424 kts 351°
2026-05-06 16:22 54.75331 49.72703 23736 ft 421 kts 346°
2026-05-06 16:22 54.78124 49.71376 23080 ft 418 kts 343°
2026-05-06 16:23 54.80870 49.69850 22427 ft 415 kts 341°
2026-05-06 16:23 54.83579 49.68232 21779 ft 412 kts 341°
2026-05-06 16:23 54.86241 49.66591 21146 ft 409 kts 340°
2026-05-06 16:23 54.88895 49.64938 20506 ft 407 kts 340°
2026-05-06 16:24 54.91538 49.63290 19851 ft 404 kts 340°
2026-05-06 16:24 54.94190 49.61639 19205 ft 401 kts 340°
2026-05-06 16:24 54.96793 49.60023 18568 ft 398 kts 340°
2026-05-06 16:24 54.99352 49.58437 17938 ft 395 kts 340°
2026-05-06 16:25 55.01951 49.56827 17289 ft 393 kts 340°
2026-05-06 16:25 55.04511 49.55242 16642 ft 390 kts 340°
2026-05-06 16:25 55.07052 49.53670 15996 ft 388 kts 340°
2026-05-06 16:25 55.09521 49.52142 15365 ft 380 kts 340°
2026-05-06 16:26 55.11991 49.50613 14757 ft 370 kts 340°
2026-05-06 16:26 55.14375 49.49137 14129 ft 362 kts 339°
2026-05-06 16:26 55.16724 49.47680 13510 ft 354 kts 340°
2026-05-06 16:26 55.19022 49.46354 12939 ft 351 kts 342°
2026-05-06 16:27 55.22165 49.44826 12137 ft 353 kts 344°
2026-05-06 16:27 55.23751 49.44105 11728 ft 350 kts 344°
2026-05-06 16:27 55.26070 49.43057 11134 ft 344 kts 344°
2026-05-06 16:27 55.29090 49.41666 10631 ft 328 kts 344°
2026-05-06 16:28 55.30527 49.40993 10507 ft 318 kts 344°
2026-05-06 16:28 55.32616 49.40004 10388 ft 301 kts 343°
2026-05-06 16:28 55.34589 49.39060 10248 ft 288 kts 343°
2026-05-06 16:28 55.36496 49.38142 10108 ft 285 kts 343°
2026-05-06 16:29 55.38409 49.37215 9863 ft 285 kts 343°
2026-05-06 16:29 55.40304 49.36298 9497 ft 283 kts 342°
2026-05-06 16:29 55.42191 49.35380 9140 ft 280 kts 341°
2026-05-06 16:29 55.43984 49.34132 8839 ft 273 kts 327°
2026-05-06 16:30 55.45371 49.32006 8487 ft 266 kts 308°
2026-05-06 16:30 55.46109 49.30277 8278 ft 263 kts 304°
2026-05-06 16:30 55.47491 49.26776 7848 ft 261 kts 304°
2026-05-06 16:30 55.48561 49.24163 7551 ft 261 kts 305°
2026-05-06 16:31 55.49643 49.21616 7151 ft 260 kts 306°
2026-05-06 16:31 55.50724 49.19111 6853 ft 258 kts 306°
2026-05-06 16:31 55.51812 49.16600 6510 ft 258 kts 306°
2026-05-06 16:31 55.52885 49.14109 6184 ft 256 kts 306°
2026-05-06 16:32 55.53957 49.11616 5827 ft 256 kts 305°
2026-05-06 16:32 55.55034 49.09106 5374 ft 260 kts 306°
2026-05-06 16:32 55.56128 49.06559 5025 ft 260 kts 306°
2026-05-06 16:32 55.57216 49.04022 4676 ft 259 kts 306°
2026-05-06 16:33 55.58291 49.01510 4401 ft 253 kts 306°
2026-05-06 16:33 55.59319 48.99109 4258 ft 238 kts 306°
2026-05-06 16:33 55.60294 48.96829 4203 ft 224 kts 306°
2026-05-06 16:34 55.62326 48.93080 4092 ft 206 kts 332°
2026-05-06 16:34 55.63711 48.92635 3976 ft 205 kts 359°
2026-05-06 16:34 55.65110 48.93158 3721 ft 209 kts 17°
2026-05-06 16:34 55.66391 48.94442 3494 ft 210 kts 31°
2026-05-06 16:35 55.67547 48.95943 3272 ft 206 kts 32°
2026-05-06 16:35 55.68690 48.97409 3061 ft 202 kts 33°
2026-05-06 16:35 55.69881 48.99914 2773 ft 204 kts 68°
2026-05-06 16:35 55.69997 49.02341 2699 ft 195 kts 100°
2026-05-06 16:36 55.69732 49.03883 2708 ft 193 kts 115°
2026-05-06 16:36 55.69087 49.05938 2704 ft 191 kts 124°
2026-05-06 16:36 55.68351 49.07898 2678 ft 193 kts 126°
2026-05-06 16:36 55.67603 49.09847 2489 ft 189 kts 126°
2026-05-06 16:37 55.66866 49.11764 2167 ft 186 kts 126°
2026-05-06 16:37 55.66166 49.13580 1955 ft 174 kts 126°
2026-05-06 16:37 55.65490 49.15332 1701 ft 168 kts 127°
2026-05-06 16:37 55.64845 49.16995 1494 ft 163 kts 127°
2026-05-06 16:38 55.64210 49.18642 1282 ft 160 kts 127°
2026-05-06 16:38 55.63583 49.20258 1072 ft 158 kts 127°
2026-05-06 16:38 55.62977 49.21827 873 ft 155 kts 127°
2026-05-06 16:38 55.62368 49.23397 682 ft 151 kts 127°
2026-05-06 16:39 55.61784 49.24903 490 ft 149 kts 127°
2026-05-06 16:39 55.61206 49.26374 416 ft 131 kts 125°
2026-05-06 16:39 55.60817 49.27382 416 ft 69 kts 123°
2026-05-06 16:39 55.60629 49.27870 416 ft 43 kts 124°
2026-05-06 16:40 55.60488 49.28233 416 ft 29 kts 124°
2026-05-06 16:40 55.60405 49.28449 416 ft 12 kts 124°
2026-05-06 16:40 55.60390 49.28565 416 ft 8 kts 59°
2026-05-06 16:40 55.60438 49.28634 416 ft 8 kts 36°
2026-05-06 16:41 55.60486 49.28695 416 ft 8 kts 35°
2026-05-06 16:41 55.60537 49.28755 416 ft 9 kts 33°
2026-05-06 16:41 55.60581 49.28833 416 ft 8 kts 73°
2026-05-06 16:41 55.60580 49.28941 416 ft 10 kts 94°
2026-05-06 16:42 55.60577 49.29076 416 ft 10 kts 83°
2026-05-06 16:42 55.60614 49.29187 416 ft 10 kts 37°
2026-05-06 16:42 55.60673 49.29259 416 ft 10 kts 34°
2026-05-06 16:42 55.60721 49.29316 416 ft 6 kts 33°
2026-05-06 16:43 55.60735 49.29358 416 ft 3 kts 91°
2026-05-06 16:43 55.60725 49.29404 416 ft 6 kts 121°
2026-05-06 16:43 55.60689 49.29496 416 ft 10 kts 125°
2026-05-06 16:43 55.60650 49.29599 416 ft 9 kts 125°
2026-05-06 16:44 55.60614 49.29692 416 ft 8 kts 124°
2026-05-06 16:44 55.60580 49.29779 416 ft 8 kts 124°
2026-05-06 16:44 55.60553 49.29848 416 ft 4 kts 120°
2026-05-06 16:44 55.60561 49.29892 416 ft 3 kts 45°
2026-05-06 16:45 55.60577 49.29915 416 ft 1 kts 34°
2026-05-06 16:45 55.60579 49.29917 416 ft 0 kts 34°